TimeEDT,TemperatureF,Dew PointF,Humidity,Sea Level PressureIn,VisibilityMPH,Wind Direction,Wind SpeedMPH,Gust SpeedMPH,PrecipitationIn,Events,Conditions,WindDirDegrees,DateUTC
12:15 AM,59.0,57.2,94,30.08,4.0,Calm,Calm,-,N/A,,Clear,0,2013-06-15 04:15:00
12:35 AM,58.6,57.0,94,30.08,7.0,Calm,Calm,-,N/A,,Clear,0,2013-06-15 04:35:00
12:55 AM,57.9,56.3,94,30.08,5.0,Calm,Calm,-,N/A,,Clear,0,2013-06-15 04:55:00
1:15 AM,58.5,56.8,94,30.08,10.0,Calm,Calm,-,N/A,,Clear,0,2013-06-15 05:15:00
1:35 AM,58.1,56.3,94,30.08,10.0,Calm,Calm,-,N/A,,Clear,0,2013-06-15 05:35:00
1:55 AM,56.8,55.0,94,30.08,10.0,Calm,Calm,-,N/A,,Clear,0,2013-06-15 05:55:00
2:15 AM,57.0,55.4,94,30.08,10.0,Calm,Calm,-,N/A,,Clear,0,2013-06-15 06:15:00
2:35 AM,56.5,55.0,95,30.07,10.0,Calm,Calm,-,N/A,,Clear,0,2013-06-15 06:35:00
2:55 AM,55.6,54.1,95,30.07,2.0,Calm,Calm,-,N/A,,Scattered Clouds,0,2013-06-15 06:55:00
3:15 AM,55.4,54.0,95,30.06,10.0,Calm,Calm,-,N/A,,Clear,0,2013-06-15 07:15:00
3:35 AM,55.0,53.6,95,30.06,10.0,Calm,Calm,-,N/A,,Clear,0,2013-06-15 07:35:00
3:55 AM,54.7,53.2,95,30.06,5.0,Calm,Calm,-,N/A,,Scattered Clouds,0,2013-06-15 07:55:00
4:15 AM,53.2,51.8,95,30.08,0.5,Calm,Calm,-,N/A,Fog,Fog,0,2013-06-15 08:15:00
4:35 AM,54.0,52.7,95,30.09,7.0,Calm,Calm,-,N/A,,Scattered Clouds,0,2013-06-15 08:35:00
4:55 AM,53.1,51.8,95,30.10,10.0,Calm,Calm,-,N/A,,Scattered Clouds,0,2013-06-15 08:55:00
5:15 AM,53.2,51.8,95,30.10,10.0,Calm,Calm,-,N/A,,Clear,0,2013-06-15 09:15:00
5:35 AM,53.2,51.8,95,30.10,10.0,Calm,Calm,-,N/A,,Clear,0,2013-06-15 09:35:00
5:55 AM,52.7,51.1,94,30.11,5.0,Calm,Calm,-,N/A,,Clear,0,2013-06-15 09:55:00
6:15 AM,52.9,51.6,95,30.11,7.0,Calm,Calm,-,N/A,,Clear,0,2013-06-15 10:15:00
6:35 AM,52.9,51.8,96,30.13,0.5,Calm,Calm,-,N/A,Fog,Fog,0,2013-06-15 10:35:00
6:55 AM,54.1,52.9,95,30.14,10.0,Calm,Calm,-,N/A,,Scattered Clouds,0,2013-06-15 10:55:00
7:15 AM,55.6,54.3,96,30.13,7.0,Calm,Calm,-,N/A,,Clear,0,2013-06-15 11:15:00
7:35 AM,56.3,54.7,94,30.14,5.0,Calm,Calm,-,N/A,,Clear,0,2013-06-15 11:35:00
7:55 AM,57.6,55.9,94,30.14,10.0,Calm,Calm,-,N/A,,Clear,0,2013-06-15 11:55:00
8:15 AM,59.5,57.2,92,30.14,10.0,Calm,Calm,-,N/A,,Clear,0,2013-06-15 12:15:00
8:35 AM,61.7,58.5,89,30.15,10.0,Calm,Calm,-,N/A,,Clear,0,2013-06-15 12:35:00
8:55 AM,64.4,59.0,83,30.15,10.0,Calm,Calm,-,N/A,,Clear,0,2013-06-15 12:55:00
9:15 AM,66.2,58.6,77,30.15,10.0,Calm,Calm,-,N/A,,Clear,0,2013-06-15 13:15:00
9:35 AM,67.5,58.1,72,30.15,10.0,Calm,Calm,-,N/A,,Clear,0,2013-06-15 13:35:00
9:55 AM,69.6,56.5,63,30.15,10.0,Calm,Calm,-,N/A,,Clear,0,2013-06-15 13:55:00
10:35 AM,71.4,57.6,62,30.14,10.0,WNW,3.5,-,N/A,,Clear,290,2013-06-15 14:35:00
10:55 AM,72.5,57.4,59,30.13,10.0,South,4.6,-,N/A,,Clear,190,2013-06-15 14:55:00
11:15 AM,73.0,56.1,55,30.14,10.0,West,3.5,-,N/A,,Clear,270,2013-06-15 15:15:00
11:35 AM,73.6,55.6,53,30.14,10.0,Calm,Calm,-,N/A,,Scattered Clouds,0,2013-06-15 15:35:00
11:55 AM,73.9,54.9,51,30.12,10.0,Calm,Calm,-,N/A,,Scattered Clouds,0,2013-06-15 15:55:00
12:15 PM,75.0,55.2,50,30.12,10.0,West,3.5,-,N/A,,Scattered Clouds,280,2013-06-15 16:15:00
12:35 PM,75.0,53.8,47,30.12,10.0,NW,5.8,-,N/A,,Scattered Clouds,310,2013-06-15 16:35:00
12:55 PM,74.1,53.1,48,30.11,10.0,SSW,3.5,-,N/A,,Scattered Clouds,210,2013-06-15 16:55:00
1:15 PM,76.1,53.2,45,30.10,10.0,WSW,5.8,-,N/A,,Scattered Clouds,250,2013-06-15 17:15:00
1:35 PM,76.6,50.4,40,30.09,10.0,Calm,Calm,-,N/A,,Clear,0,2013-06-15 17:35:00
1:55 PM,76.3,52.2,43,30.09,10.0,Calm,Calm,-,N/A,,Clear,0,2013-06-15 17:55:00
2:15 PM,76.1,50.4,40,30.09,10.0,North,-9999.0,-,N/A,,Clear,0,2013-06-15 18:15:00
2:35 PM,75.9,52.9,45,30.08,10.0,Calm,Calm,-,N/A,,Clear,0,2013-06-15 18:35:00
2:55 PM,77.0,53.2,44,30.07,10.0,SSE,4.6,-,N/A,,Clear,160,2013-06-15 18:55:00
3:15 PM,77.4,53.4,43,30.07,10.0,Calm,Calm,-,N/A,,Scattered Clouds,0,2013-06-15 19:15:00
3:35 PM,77.9,52.9,42,30.07,10.0,Calm,Calm,-,N/A,,Scattered Clouds,0,2013-06-15 19:35:00
3:55 PM,77.9,53.1,42,30.07,10.0,SSW,4.6,-,N/A,,Scattered Clouds,210,2013-06-15 19:55:00
4:15 PM,77.0,53.4,44,30.06,10.0,SSE,4.6,-,N/A,,Clear,160,2013-06-15 20:15:00
4:35 PM,77.4,53.6,44,30.06,10.0,South,4.6,-,N/A,,Clear,170,2013-06-15 20:35:00
4:55 PM,78.4,53.1,41,30.06,10.0,Calm,Calm,-,N/A,,Clear,0,2013-06-15 20:55:00
5:15 PM,78.8,54.1,42,30.06,10.0,South,3.5,-,N/A,,Clear,190,2013-06-15 21:15:00
5:35 PM,77.5,55.2,46,30.06,10.0,Calm,Calm,-,N/A,,Scattered Clouds,0,2013-06-15 21:35:00
5:55 PM,76.8,56.8,50,30.06,10.0,Calm,Calm,-,N/A,,Mostly Cloudy,0,2013-06-15 21:55:00
6:15 PM,77.2,55.9,48,30.06,10.0,Calm,Calm,-,N/A,,Scattered Clouds,0,2013-06-15 22:15:00
6:35 PM,77.0,56.3,49,30.06,10.0,Calm,Calm,-,N/A,,Clear,0,2013-06-15 22:35:00
6:55 PM,76.8,58.1,52,30.06,10.0,Calm,Calm,-,N/A,,Scattered Clouds,0,2013-06-15 22:55:00
7:15 PM,76.3,57.4,52,30.05,10.0,Calm,Calm,-,N/A,,Clear,0,2013-06-15 23:15:00
7:35 PM,75.6,59.7,58,30.04,10.0,Calm,Calm,-,N/A,,Clear,0,2013-06-15 23:35:00
7:55 PM,74.5,62.1,65,30.03,10.0,Calm,Calm,-,N/A,,Clear,0,2013-06-15 23:55:00
8:15 PM,73.2,61.9,68,30.03,10.0,Calm,Calm,-,N/A,,Clear,0,2013-06-16 00:15:00
8:35 PM,72.0,62.1,71,30.02,10.0,Calm,Calm,-,N/A,,Clear,0,2013-06-16 00:35:00
8:55 PM,70.9,61.0,71,30.01,10.0,Calm,Calm,-,N/A,,Clear,0,2013-06-16 00:55:00
9:15 PM,69.8,61.5,75,30.01,10.0,SSE,3.5,-,N/A,,Clear,150,2013-06-16 01:15:00
9:35 PM,69.3,61.3,76,30.02,10.0,Calm,Calm,-,N/A,,Clear,0,2013-06-16 01:35:00
9:55 PM,68.4,61.7,79,30.02,10.0,Calm,Calm,-,N/A,,Clear,0,2013-06-16 01:55:00
10:15 PM,67.1,61.9,83,30.03,10.0,Calm,Calm,-,N/A,,Clear,0,2013-06-16 02:15:00
10:35 PM,66.2,61.2,84,30.03,10.0,Calm,Calm,-,N/A,,Clear,0,2013-06-16 02:35:00
10:55 PM,67.5,60.8,79,30.03,10.0,Calm,Calm,-,N/A,,Clear,0,2013-06-16 02:55:00
11:15 PM,67.1,60.4,79,30.03,10.0,Calm,Calm,-,N/A,,Clear,0,2013-06-16 03:15:00
11:35 PM,65.3,61.7,88,30.03,10.0,Calm,Calm,-,N/A,,Clear,0,2013-06-16 03:35:00
11:55 PM,64.4,61.3,90,30.03,10.0,Calm,Calm,-,N/A,,Scattered Clouds,0,2013-06-16 03:55:00